Location: Bo?a Wola
(50.4192°N, 19.7966°E)
Time: 13:08:35
(UTC+00:00)

Cosmos 2263 Rocket - Pass Details

Date: 15 June 2024
Orbit: 824 x 846 km, 71.0° (Epoch: 15 July)

Event Time Altitude Azimuth Distance (km) Brightness Sun altitude
Exits shadow 00:58:52 11° 232° (SW) 2,331 3.9 -10.2°
Maximum altitude 01:04:00 50° 306° (NW) 1,043 2.7 -9.8°
Drops below altitude 10° 01:09:25 10° 22° (NNE) 2,436 6.1 -9.3°
Sets 01:11:57 0° 28° (NNE) 3,372 7.6 -9.1°
